Content
SEND FEEDBACK

Daily
Averages
Monthly
Summary
United States of America

ST. LOUIS - SAINT LOUIS UNIVERSITY, MISSOURI


Home > North America > United States > Missouri
Elevation: 580 feet     Latitude: 38 38N     Longitude: 090 14W

WEATHER
 
SELECT A DAY
Number of Records: 184,152;   Date Range: 1/1/95 - 4/16/14
 
SHARE

PRINT THIS DATA

[ ← Previous Day ]
WEATHER ALMANAC - MAY 17, 2013
[ Next Day → ]
[ °C ]   °F
Weather ElementAverageHighLow
Temperature69.9 °F79 °F (2:53 pm)63 °F (1:53 am)
Dewpoint62 °F64.9 °F (3:53 pm)57.9 °F (4:53 am)
Humidity76.3 %90 % (1:53 am)60 % (2:53 pm)
Barometer29.94 in29.96 in (8:53 am)29.91 in (3:53 pm)
Wind Speed5.3 mph12.7 mph (4:53 pm)
Weather ElementAverage
Visibility9.8 mi
Wind DirectionESE (106.4 °)

Weather ElementTotal
Precipitation0.01 in
Cooling Degree Days6 (Base 65)
Growing Degree Days21 (Base 50)
Averaged from 22 records on May 17, 2013
WEATHER CONDITIONS BREAKOUT
WIND DIRECTION BREAKOUT
WEATHER BY HOUR - MAY 17, 2013
[ °C ]   °F
Local TimeTemperatureDewpointHumidityBarometerVisibilityWind DirectionWind SpeedGust SpeedPrecipitationEventsConditions
1:53 AM63.0 °F60.1 °F90 %29.93 in9.0 miCalmMostly Cloudy
2:53 AM63.0 °F59.0 °F87 %29.92 in10.0 miCalmOvercast
3:53 AM64.9 °F59.0 °F81 %29.92 in10.0 miSE (140°)4.6 mphOvercast
4:53 AM64.0 °F57.9 °F80 %29.92 in10.0 miSE (140°)3.5 mphScattered Clouds
5:53 AM64.0 °F59.0 °F84 %29.93 in10.0 miCalmOvercast
6:53 AM64.9 °F60.1 °F84 %29.95 in10.0 miCalmOvercast
7:53 AM66.9 °F62.1 °F84 %29.94 in10.0 miSE (140°)8.1 mph0.00 inScattered Clouds
8:53 AM71.1 °F63.0 °F75 %29.96 in10.0 miSouth (180°)5.8 mphClear
9:53 AM70.0 °F63.0 °F78 %29.96 in10.0 miSE (140°)5.8 mphOvercast
10:53 AM73.9 °F64.0 °F71 %29.96 in10.0 miESE (110°)6.9 mphMostly Cloudy
11:53 AM73.9 °F63.0 °F68 %29.96 in10.0 miSE (140°)8.1 mphOvercast
12:53 PM70.0 °F64.0 °F81 %29.96 in6.0 miESE (120°)8.1 mph0.01 inRainLight Rain
2:53 PM79.0 °F64.0 °F60 %29.93 in10.0 miSE (130°)9.2 mphMostly Cloudy
3:53 PM75.9 °F64.9 °F69 %29.91 in10.0 miENE (70°)11.5 mphMostly Cloudy
4:53 PM75.9 °F63.0 °F64 %29.91 in10.0 miSE (140°)12.7 mphMostly Cloudy
5:53 PM75.9 °F63.0 °F64 %29.91 in10.0 miSE (140°)8.1 mphOvercast
6:53 PM75.0 °F63.0 °F66 %29.91 in10.0 miSE (140°)5.8 mphScattered Clouds
7:53 PM73.0 °F62.1 °F68 %29.92 in10.0 miSSE (160°)3.5 mphMostly Cloudy
8:53 PM71.1 °F63.0 °F75 %29.93 in10.0 miSSE (150°)6.9 mphMostly Cloudy
9:53 PM69.1 °F62.1 °F78 %29.95 in10.0 miSSE (150°)3.5 mphClear
10:53 PM66.9 °F62.1 °F84 %29.96 in10.0 miSSE (150°)3.5 mphClear
11:53 PM66.0 °F62.1 °F87 %29.96 in10.0 miCalmPartly Cloudy
Hourly data recorded from KCPS, located 5.61 miles away from St. Louis - Saint Louis University, Missouri







STORIES FROM OUR PARTNERS